TimePST,TemperatureF,Dew PointF,Humidity,Sea Level PressureIn,VisibilityMPH,Wind Direction,Wind SpeedMPH,Gust SpeedMPH,PrecipitationIn,Events,Conditions,WindDirDegrees,DateUTC
12:56 AM,44.1,37.0,76,30.29,10.0,Calm,Calm,-,N/A,,Clear,0,2013-01-30 08:56:00
1:56 AM,43.0,37.0,80,30.32,10.0,WNW,3.5,-,N/A,,Clear,290,2013-01-30 09:56:00
2:56 AM,41.0,36.0,82,30.33,10.0,West,4.6,-,N/A,,Clear,260,2013-01-30 10:56:00
3:56 AM,43.0,37.0,80,30.34,10.0,WNW,5.8,-,N/A,,Clear,290,2013-01-30 11:56:00
4:56 AM,41.0,36.0,82,30.35,10.0,WSW,3.5,-,N/A,,Clear,240,2013-01-30 12:56:00
5:56 AM,39.9,36.0,86,30.36,10.0,Calm,Calm,-,N/A,,Clear,0,2013-01-30 13:56:00
6:56 AM,41.0,36.0,82,30.37,10.0,Calm,Calm,-,N/A,,Clear,0,2013-01-30 14:56:00
7:56 AM,44.1,39.0,82,30.39,10.0,Calm,Calm,-,N/A,,Clear,0,2013-01-30 15:56:00
8:56 AM,52.0,41.0,66,30.41,10.0,NNW,3.5,-,N/A,,Clear,340,2013-01-30 16:56:00
9:56 AM,55.9,42.1,60,30.42,10.0,Calm,Calm,-,N/A,,Partly Cloudy,0,2013-01-30 17:56:00
10:56 AM,61.0,39.0,44,30.40,10.0,Calm,Calm,-,N/A,,Partly Cloudy,0,2013-01-30 18:56:00
11:56 AM,64.9,37.9,37,30.37,10.0,North,3.5,-,N/A,,Partly Cloudy,350,2013-01-30 19:56:00
12:56 PM,64.9,36.0,34,30.34,10.0,Calm,Calm,-,N/A,,Clear,0,2013-01-30 20:56:00
1:56 PM,66.9,33.1,28,30.31,10.0,South,4.6,-,N/A,,Clear,190,2013-01-30 21:56:00
2:56 PM,66.9,33.1,28,30.29,10.0,South,4.6,-,N/A,,Clear,180,2013-01-30 22:56:00
3:56 PM,68.0,30.9,25,30.28,10.0,Calm,Calm,-,N/A,,Clear,0,2013-01-30 23:56:00
4:56 PM,64.9,32.0,29,30.27,10.0,Calm,Calm,-,N/A,,Clear,0,2013-01-31 00:56:00
5:56 PM,61.0,34.0,36,30.27,10.0,WSW,3.5,-,N/A,,Clear,250,2013-01-31 01:56:00
6:56 PM,59.0,34.0,39,30.27,10.0,Calm,Calm,-,N/A,,Clear,0,2013-01-31 02:56:00
7:56 PM,55.9,35.1,45,30.28,10.0,Calm,Calm,-,N/A,,Clear,0,2013-01-31 03:56:00
8:56 PM,52.0,36.0,54,30.30,10.0,Calm,Calm,-,N/A,,Clear,0,2013-01-31 04:56:00
9:56 PM,54.0,36.0,51,30.30,10.0,SW,3.5,-,N/A,,Clear,220,2013-01-31 05:56:00
10:56 PM,46.9,37.0,68,30.29,10.0,West,6.9,-,N/A,,Clear,260,2013-01-31 06:56:00
11:56 PM,46.9,37.9,71,30.30,10.0,Calm,Calm,-,N/A,,Clear,0,2013-01-31 07:56:00